Regional Weather Roundup
Issued by NWS Northern Indiana

Home | Current Version | Previous Version | Graphics & Text | Print | Product List | Glossary On
Versions: 1 2 3 4 5 6 7 8 9 10 11 12 13 14 15 16 17 18 19 20 21 22 23 24 25 26 27 28 29 30 31 32 33 34 35 36 37 38 39 40 41 42 43 44 45 46 47 48 49 50
000
ASUS43 KIWX 231000
RWRIWX

KIWX WEATHER ROUNDUP
NATIONAL WEATHER SERVICE NORTHERN INDIANA
600 AM EDT SAT AUG 23 2014

NOTE: "FAIR" INDICATES FEW OR NO CLOUDS BELOW 12,000 FEET WITH NO
SIGNIFICANT WEATHER AND/OR OBSTRUCTIONS TO VISIBILITY.

* THESE STATIONS ARE NOT UNDER NWS QUALITY CONTROL. THEY ALSO MAY NOT
  REPORT WEATHER SUCH AS PRECIPITATION OR FOG.

INZ001>027-231100-
NORTHERN INDIANA

CITY           SKY/WX    TMP DP  RH WIND       PRES   REMARKS
GARY*            N/A     72  70  94 CALM      29.98S FOG
VALPARAISO     CLEAR     70  68  93 CALM      29.99S FOG
KNOX*            N/A     67  65  94 CALM      29.98S VSB 1/4
SOUTH BEND     CLOUDY    70  69  97 CALM      30.00R FOG
GOSHEN         FOG       72  69  90 CALM      29.99R VSB 1/2
MONTICELLO*    CLOUDY    68  68 100 CALM      29.98R FOG
WARSAW*        FOG       68  68 100 CALM      29.99S VSB 1/2
ANGOLA*        PTCLDY    72  63  73 E3        30.01R
FORT WAYNE     PTCLDY    69  68  96 CALM      30.00R FOG
PERU/GRISSOM   FOG       70 N/A N/A S2        29.99R VSB 1/2

$$
INZ028>050-231100-
CENTRAL INDIANA

CITY           SKY/WX    TMP DP  RH WIND       PRES   REMARKS
LAFAYETTE      CLEAR     68  68 100 E3        29.98R FOG
KOKOMO*        CLOUDY    68  66  94 CALM      29.99R VSB 1/4
MUNCIE*        FOG       69  67  93 CALM      29.99R VSB 1
INDIANAPOLIS   CLEAR     70  68  93 CALM      29.98R

$$
MIZ043>046-050>051-056>058-064>065-071>073-077>080-231100-
SOUTHWEST LOWER MICHIGAN

CITY           SKY/WX    TMP DP  RH WIND       PRES   REMARKS
BATTLE CREEK   CLOUDY    71  68  90 E3        30.02S FOG
BENTON HARBOR  PTCLDY    69  69 100 E3        29.99R FOG
COLDWATER*     CLOUDY    72  70  95 SE5       30.01R FOG
HILLSDALE*     CLEAR     66  66  98 CALM      30.03R
HOLLAND        PTCLDY    68  66  93 E5        30.01R
GRAND RAPIDS   PTCLDY    67  67 100 E6        30.02R
KALAMAZOO      FOG       70  69  97 CALM      30.01S VSB 1/4
STURGIS*       CLEAR     70  70 100 E3        30.00R FOG
THREE RIVERS*    N/A     71  70  98 CALM      30.01R FOG

$$
OHZ001>008-015>018-024>025-231100-
NORTHWEST OHIO

CITY           SKY/WX    TMP DP  RH WIND       PRES   REMARKS
DEFIANCE       FOG       71  69  93 NE3       30.00R VSB 1/4
FINDLAY        CLEAR     70  68  93 NE5       29.99S FOG
TOLEDO EXPRESS PTCLDY    68  65  90 NE5       30.00S
TOLEDO METCALF MOCLDY    71  65  81 NE6       30.01S
LIMA           PTCLDY    71  68  90 E3        29.99S FOG

$$
&&



USA.gov is the U.S. government's official web portal to all federal, state and local government web resources and services.